This demonstration page uses our WeatherBlox Daily Observations layout. Learn more.

Left ArrowRight Arrow

34.16533, -84.80231

Hourly Observations for April 8, 2020

Temp ( °F °C ) Dew Point ( °F °C ) Humidity (%) Winds ( mph kmh ) Pressure ( in mb ) Visibility ( mi km ) Precip ( " mm )
12:53 am 00:53 Clear 59 15 56 13.3 90 90 Calm 29.92 1013 10 16 0.00 0.00
1:53 am 01:53 Mostly Clear 59 15 56 13.3 90 90 Calm 29.91 1013 10 16 0.00 0.00
2:21 am 02:21 Mostly Cloudy 60 15.6 57 13.9 90 90 Calm 29.92 1013 10 16 0.00 0.00
2:53 am 02:53 Cloudy 61 16.1 57 13.9 87 87 Calm 29.89 1012 10 16 0.00 0.00
3:53 am 03:53 Cloudy 62 16.7 57 13.9 84 84 Calm 29.86 1011 10 16 0.00 0.00
4:25 am 04:25 Cloudy 62 16.7 58 14.4 86 86 Calm 29.88 1012 10 16 0.00 0.00
4:53 am 04:53 Cloudy 62 16.7 58 14.4 86 86 Calm 29.85 1011 10 16 0.00 0.00
5:53 am 05:53 Cloudy 62 16.7 58 14.4 86 86 Calm 29.84 1011 10 16 0.00 0.00
6:53 am 06:53 Cloudy 63 17.2 58 14.4 84 84 Calm 29.85 1011 10 16 0.00 0.00
7:18 am 07:18 Cloudy 63 17.2 59 15 87 87 Calm 29.88 1012 10 16 0.00 0.00
7:53 am 07:53 Cloudy 63 17.2 59 15 87 87 Calm 29.87 1011 10 16 0.00 0.00
8:53 am 08:53 Cloudy 64 17.8 59 15 84 84 Calm 29.88 1012 10 16 0.00 0.00
9:14 am 09:14 Cloudy 64 17.8 60 15.6 87 87 Calm 29.90 1012 10 16 0.00 0.00
9:53 am 09:53 Cloudy with Mist and Fog 66 18.9 62 16.7 87 87 Calm 29.88 1012 5 8 0.00 0.00
10:08 am 10:08 Cloudy 67 19.4 63 17.2 87 87 Calm 29.90 1013 8 13 0.00 0.00
10:53 am 10:53 Cloudy with Mist and Fog 69 20.6 65 18.3 87 87 Calm 29.89 1012 6 10 0.00 0.00
11:49 am 11:49 Cloudy 73 23 66 19 78 78 Calm 29.89 1012 10 16 0.00 0.00
11:53 am 11:53 Cloudy 72 22.2 66 18.9 82 82 Calm 29.88 1012 10 16 0.00 0.00
12:18 pm 12:18 Cloudy 74 23.3 66 18.9 76 76 Calm 29.88 1012 10 16 0.00 0.00
12:53 pm 12:53 Cloudy 77 25 66 18.9 69 69 VRB 3 6 29.87 1012 10 16 0.00 0.00
1:40 pm 13:40 Partly Cloudy 80 26.7 67 19.4 64 64 undefined N/A 29.85 1011 10 16 0.00 0.00
1:53 pm 13:53 Partly Cloudy 78 25.6 65 18.3 64 64 VRB 3 6 29.83 1010 10 16 0.00 0.00
2:53 pm 14:53 Mostly Sunny 81 27.2 66 18.9 61 61 Calm 29.80 1009 10 16 0.00 0.00
3:53 pm 15:53 Sunny 80 26.7 64 17.8 58 58 Calm 29.79 1009 10 16 0.00 0.00
4:53 pm 16:53 Sunny 80 26.7 65 18.3 60 60 Calm 29.77 1008 10 16 0.00 0.00
5:53 pm 17:53 Sunny 78 25.6 66 18.9 67 67 Calm 29.76 1008 10 16 0.00 0.00
6:53 pm 18:53 Sunny 77 25 66 18.9 69 69 Calm 29.76 1008 10 16 0.00 0.00
7:53 pm 19:53 Sunny 74 23.3 66 18.9 76 76 Calm 29.74 1007 10 16 0.00 0.00
8:53 pm 20:53 Clear 70 21.1 66 18.9 87 87 Calm 29.75 1007 10 16 0.00 0.00
9:53 pm 21:53 Clear 71 21.7 66 18.9 84 84 Calm 29.75 1008 10 16 0.00 0.00
10:53 pm 22:53 Partly Cloudy 72 22.2 66 18.9 82 82 Calm 29.75 1007 10 16 0.00 0.00
11:27 pm 23:27 Cloudy with Nearby Thunderstorms 71 21.7 66 18.9 84 84 Calm 29.77 1008 10 16 0.00 0.00
11:42 pm 23:42 Cloudy 71 21.7 66 18.9 84 84 VRB 3 6 29.75 1007 10 16 0.00 0.00
11:53 pm 23:53 Cloudy 71 21.7 66 18.9 84 84 SSW 3 6 29.72 1007 9 14 0.00 0.00

Powered by AerisWeather